Theta_e
323 323 325 326 320 321 322 325 327 329 329 326 328 330 337 341 342 344 344 341 342 334 322 322 323 322 326 333 340 339 330 326 322 319 318 321 323 321 320 319 319 319 319 319 319 320 320 320 319
323 324 325 325 320 321 323 326 327 324 325 327 327 327 333 335 338 342 345 345 340 340 322 321 321 321 324 328 336 335 327 324 322 319 318 319 319 319 319 319 319 320 320 320 320 320 320 320 320
323 325 327 322 321 321 324 326 326 325 326 326 326 327 333 334 335 337 340 345 341 341 324 321 320 320 323 323 330 331 326 323 321 319 319 319 320 320 320 320 320 320 320 320 320 320 320 320 320
323 324 327 323 323 324 325 325 326 326 326 327 326 327 332 332 334 337 339 343 346 343 337 321 320 320 322 323 323 328 326 324 322 320 320 320 320 320 320 320 320 320 320 320 320 320 320 320 320
322 323 323 325 323 324 325 326 326 324 325 326 326 326 332 330 332 338 339 342 343 346 343 322 320 320 322 323 323 325 328 328 325 321 320 320 320 320 320 320 320 320 320 320 320 319 319 319 320
320 324 323 324 325 326 327 328 329 325 326 325 326 327 330 330 330 333 337 341 344 345 345 324 320 320 322 323 323 324 327 329 327 323 320 320 320 320 320 320 320 320 320 320 319 319 319 319 319
319 319 322 324 326 326 327 328 330 328 328 326 326 328 329 330 329 329 340 337 344 345 345 335 321 320 322 323 323 324 325 327 327 324 321 320 320 320 320 319 320 320 319 319 319 318 318 318 318
319 318 321 323 324 325 326 327 327 326 327 329 326 328 329 328 328 329 337 339 343 347 345 344 322 320 321 323 324 324 325 326 326 325 321 320 320 320 320 320 319 319 319 319 319 318 318 318 318
319 317 319 322 324 324 325 325 327 326 325 325 327 328 329 329 329 328 328 340 344 346 346 344 334 321 321 323 324 326 325 326 326 325 323 320 320 320 320 320 319 319 319 319 319 319 318 318 318
316 317 319 321 322 322 322 323 323 326 325 325 326 328 329 328 327 328 327 331 342 347 346 344 343 328 322 324 324 325 327 327 326 324 323 321 320 320 320 320 320 320 319 320 320 319 319 319 320
316 317 318 320 322 322 322 322 323 323 324 326 326 327 328 328 327 327 327 327 330 344 351 346 343 343 325 323 324 324 325 325 326 324 323 321 320 320 320 320 321 321 321 322 321 320 321 321 326
315 317 318 319 321 321 321 322 322 322 326 327 328 328 328 328 327 327 327 326 328 335 340 349 346 342 334 321 324 325 323 324 325 323 322 321 320 320 320 321 324 328 329 332 328 324 326 326 330
314 315 318 319 320 320 321 321 321 321 322 322 328 328 327 327 326 326 326 326 328 330 338 344 348 344 341 327 323 336 327 322 322 322 321 321 320 320 321 321 329 335 333 333 328 329 332 332 333
315 315 316 318 318 320 319 320 320 321 321 321 322 327 328 328 327 326 326 325 328 329 329 339 345 345 344 335 339 342 341 338 327 321 321 320 321 321 321 323 331 336 332 329 329 335 336 335 335
316 313 314 315 316 315 318 316 317 319 320 320 320 322 327 326 327 326 326 326 325 330 326 333 340 347 345 343 342 347 345 344 341 337 327 327 324 324 322 324 327 332 332 328 334 339 336 335 338
313 312 313 314 315 316 316 315 317 318 319 320 320 320 321 326 326 326 324 325 324 326 327 325 339 345 346 345 342 346 347 344 341 340 339 338 338 339 337 329 328 332 334 329 335 336 338 333 332
312 311 312 314 316 316 315 315 316 318 318 319 320 320 320 320 321 324 323 324 325 323 325 322 333 339 338 340 339 341 345 345 344 343 344 343 342 342 341 339 334 335 334 330 335 337 334 329 328
313 313 314 314 315 315 315 315 316 318 318 318 319 319 319 320 321 322 324 324 323 322 322 322 321 329 336 332 332 335 341 345 344 342 343 342 343 343 342 341 337 338 330 333 338 339 338 330 330
314 315 315 316 317 316 315 316 316 317 318 317 318 318 320 321 320 320 323 323 322 322 321 321 320 322 337 334 332 332 332 336 344 343 336 341 343 343 342 340 335 334 332 325 328 328 330 330 327
315 314 313 315 316 316 315 316 316 317 318 318 318 318 320 320 320 320 322 323 322 322 321 320 319 317 329 341 339 335 333 333 335 334 333 334 333 337 339 340 339 332 334 332 331 331 333 330 325
315 314 314 315 315 315 314 315 315 316 318 318 318 318 319 319 319 319 323 322 321 320 320 319 317 317 317 334 345 343 335 340 338 339 338 337 334 336 335 337 337 336 333 335 334 334 332 333 329
314 315 315 315 314 314 314 314 314 316 315 316 317 317 317 320 319 319 321 322 320 320 320 319 319 317 316 319 327 340 336 331 333 334 338 337 339 335 335 338 338 335 334 336 335 333 332 332 332
315 315 314 315 314 313 314 314 314 315 315 315 315 318 318 319 319 319 321 320 320 320 320 320 320 320 320 317 319 321 322 321 323 323 336 338 336 334 332 332 338 340 340 338 338 334 333 333 335
318 317 313 313 312 312 313 314 315 315 315 316 317 318 319 319 319 319 318 318 319 319 319 319 320 319 319 317 315 323 325 322 321 321 322 334 337 332 331 332 332 336 335 339 339 337 335 334 336
318 318 319 312 311 314 314 315 315 316 318 318 317 318 318 318 319 319 318 318 318 318 318 317 317 318 316 317 316 317 317 319 320 322 323 323 334 336 333 333 332 332 331 331 341 341 338 335 334
318 319 320 321 315 316 317 316 316 318 319 318 318 318 319 319 319 319 319 318 318 318 317 317 318 320 321 321 317 321 323 318 318 320 316 318 325 333 336 336 336 333 329 338 343 343 342 339 336
318 320 318 319 318 320 318 317 317 317 318 319 317 317 317 316 315 319 319 318 319 318 318 318 319 322 323 323 323 322 321 319 318 315 315 318 317 316 319 320 324 334 334 335 338 341 343 344 343
317 316 318 319 321 321 318 317 316 318 318 317 317 316 316 317 317 317 317 316 316 317 318 318 319 319 319 319 321 321 321 324 326 328 329 328 325 321 318 319 322 323 329 336 335 336 343 346 345
313 316 317 317 319 321 321 316 318 317 316 317 317 317 316 317 317 316 316 316 316 316 316 316 317 318 319 320 320 320 320 320 321 325 329 329 328 329 329 322 316 314 315 326 340 342 343 343 342
315 315 316 317 320 318 319 317 316 317 316 316 316 316 316 317 317 316 316 316 317 317 317 317 318 319 320 318 318 320 320 320 319 319 320 322 324 325 326 329 327 324 320 314 322 341 343 342 335
Wind_Speed
11 13 8 10 2 3 5 9 9 15 6 9 16 17 24 22 9 8 6 6 9 11 20 26 25 25 27 26 23 21 21 21 22 22 22 22 21 20 18 16 14 13 11 11 11 11 10 10 9
11 13 7 4 2 1 7 11 3 5 11 15 12 11 20 11 21 17 10 8 3 4 19 25 26 25 28 29 26 24 23 22 22 21 21 20 19 18 16 15 13 12 11 10 9 9 9 8 8
12 12 6 2 3 6 6 5 7 8 17 19 11 10 13 9 15 9 7 4 2 5 17 24 27 27 29 31 29 27 25 23 22 21 20 19 18 16 15 14 12 11 9 8 8 7 6 6 6
10 7 6 1 9 13 13 8 14 6 6 10 13 7 14 10 10 10 8 3 5 8 13 22 27 29 30 31 31 28 26 24 22 21 19 18 16 14 13 12 11 9 8 6 5 4 4 3 3
9 7 3 3 8 11 15 12 13 7 10 7 9 7 13 18 17 10 8 8 11 11 8 24 27 31 31 32 31 29 26 23 22 21 19 18 16 14 12 10 9 8 6 4 3 2 1 1 1
6 4 3 4 9 12 12 25 9 9 19 19 17 17 11 14 14 9 7 12 11 17 14 23 29 31 33 32 32 30 28 24 22 20 19 18 15 13 12 10 8 6 4 2 0 1 2 3 3
7 3 6 8 13 17 17 18 22 17 19 19 17 5 8 12 12 8 0 9 11 22 22 19 29 32 33 33 32 30 28 26 23 21 20 19 16 14 11 9 7 5 3 2 2 4 5 6 7
11 3 9 10 12 15 21 18 24 23 16 28 12 4 4 6 6 8 6 8 8 25 24 17 27 32 35 35 34 32 30 26 24 23 21 19 17 15 13 11 8 6 4 4 5 7 8 9 10
18 5 10 14 16 16 29 13 18 18 10 10 8 25 11 5 3 6 10 5 4 21 25 19 23 30 34 35 35 34 31 29 26 24 22 20 19 16 14 11 9 8 7 7 9 10 11 12 13
10 9 16 9 14 13 24 24 23 4 10 9 13 13 15 7 11 8 8 12 6 19 25 20 18 25 33 34 35 35 33 31 28 26 23 21 19 17 14 12 11 9 10 11 12 13 13 15 15
18 17 13 20 24 32 28 29 29 11 6 14 19 19 27 7 6 8 1 6 3 9 19 22 18 17 31 34 32 34 34 32 30 27 25 23 21 19 17 14 13 12 11 13 15 15 14 13 12
14 25 27 27 32 31 17 28 23 22 11 25 32 26 29 20 5 10 6 3 4 3 3 16 19 17 23 34 30 29 32 33 31 30 27 25 23 21 19 17 11 10 9 6 9 10 9 9 10
9 10 26 30 35 34 32 23 21 28 31 20 26 20 22 25 10 9 11 11 6 9 6 8 21 17 17 28 30 21 25 31 31 30 29 27 26 24 21 18 14 11 11 8 9 11 9 10 12
15 19 19 25 26 27 14 15 19 35 27 25 16 29 35 30 18 14 13 15 8 13 14 13 19 20 17 22 21 21 21 19 26 30 29 28 26 25 22 19 18 17 14 13 13 15 17 18 20
20 11 12 14 12 9 18 9 14 28 30 26 32 16 32 31 27 27 26 22 18 17 14 15 14 24 23 20 25 20 21 21 18 19 23 23 23 23 24 23 23 22 18 18 18 18 19 19 23
8 8 6 7 9 18 12 16 16 26 28 28 32 26 19 28 27 27 23 28 28 23 20 15 21 25 27 24 23 27 21 21 22 18 16 17 19 19 20 25 26 23 21 21 25 23 24 25 28
5 8 11 16 15 16 10 20 19 31 29 22 30 32 30 26 20 29 26 32 34 32 29 21 23 26 28 25 26 30 33 30 27 25 22 18 20 21 21 22 24 26 23 22 21 21 23 22 23
8 9 9 13 17 13 19 22 20 27 29 27 30 30 27 34 13 17 11 31 32 29 27 25 23 27 29 28 18 29 36 34 33 28 30 26 26 25 25 25 25 28 26 25 24 26 27 25 25
15 14 16 17 13 7 10 10 10 15 9 10 17 22 26 21 13 11 11 27 29 25 25 24 21 21 29 32 32 26 20 36 37 38 29 29 23 21 25 29 27 27 29 24 27 25 27 29 24
13 13 16 14 11 13 15 16 12 7 4 7 15 20 20 17 15 13 13 28 24 22 19 21 23 19 25 29 33 33 34 27 27 30 29 19 22 31 27 29 31 26 30 21 22 24 26 31 27
11 8 10 12 10 15 15 14 11 7 7 11 24 29 25 31 28 23 25 26 21 17 14 16 16 17 15 26 28 32 27 30 32 26 20 19 18 15 32 33 35 36 34 29 26 30 40 38 28
16 7 12 16 13 6 6 12 9 7 8 10 25 34 32 32 31 32 31 30 23 19 16 13 16 17 19 18 24 33 32 28 28 28 29 26 21 25 18 24 32 37 38 40 37 37 42 42 29
15 10 11 15 7 4 8 6 8 7 12 12 12 32 37 26 29 33 27 27 19 13 12 8 12 18 17 20 24 23 23 22 19 20 29 36 32 31 35 27 27 36 34 37 38 40 45 44 32
18 21 8 6 2 4 13 8 14 10 8 8 17 23 35 24 23 22 20 17 15 12 12 15 15 20 19 16 19 26 24 25 26 20 18 23 37 39 49 45 38 28 35 42 44 45 42 40 36
12 9 6 7 4 10 16 11 11 11 15 13 23 36 28 29 28 22 20 17 11 13 15 15 12 16 16 14 15 16 22 27 26 28 28 26 24 32 40 42 37 36 33 40 46 47 47 47 44
1 6 4 7 3 6 14 15 16 7 13 18 22 18 32 28 22 22 19 16 17 18 18 21 17 13 8 9 12 13 12 13 19 26 24 27 30 27 27 27 28 31 32 49 45 43 39 38 40
5 5 12 9 5 6 6 18 8 9 13 4 19 9 18 22 19 23 20 19 17 21 23 21 15 12 9 9 11 8 8 12 14 13 18 21 23 29 31 28 28 26 26 31 33 36 35 37 36
4 3 2 2 4 5 4 8 6 8 6 15 8 14 16 13 20 17 13 10 8 14 14 15 17 19 19 20 15 12 11 10 9 10 13 14 16 18 23 28 32 34 33 29 30 31 31 37 35
1 2 2 3 2 4 2 4 4 5 7 4 18 17 15 20 17 15 12 11 14 15 20 20 20 20 18 18 18 16 16 15 13 14 14 16 18 18 20 24 29 34 35 34 30 31 32 36 36
6 3 6 2 3 4 2 7 8 3 3 9 15 13 24 16 19 14 14 21 19 16 14 11 14 16 17 14 12 18 19 15 18 19 20 21 23 25 25 24 27 30 31 34 38 36 36 36 38
Wind_Direction
324 327 328 311 46 91 256 253 232 285 288 33 48 81 73 61 69 114 107 101 139 152 161 152 151 151 149 147 147 144 141 139 137 135 134 135 136 135 132 128 123 117 114 106 99 91 86 83 80
322 329 355 273 128 146 259 246 5 2 18 22 36 79 76 70 76 80 88 110 96 139 167 155 153 154 152 150 149 148 146 144 141 136 136 137 136 135 131 127 124 122 116 107 99 94 88 80 72
319 309 300 169 202 229 243 326 350 13 23 4 14 23 84 108 67 77 38 95 173 198 178 161 156 157 157 154 154 153 151 149 145 142 141 141 138 137 134 132 128 124 117 111 104 95 87 80 75
312 318 244 123 262 268 278 322 333 347 32 360 353 68 77 107 105 99 119 311 212 201 191 172 161 160 162 160 158 158 157 155 152 149 149 147 145 145 141 137 132 126 122 117 109 102 94 78 66
299 259 271 229 249 265 279 274 347 353 345 357 11 337 100 89 85 109 72 182 253 220 187 180 167 163 165 165 164 164 163 163 161 159 158 156 156 155 151 146 142 137 129 121 113 101 66 42 12
283 242 257 267 271 268 268 282 305 333 321 327 342 7 75 83 66 57 15 161 234 230 199 190 173 168 168 170 171 171 170 170 170 169 167 165 166 167 162 161 161 154 143 142 201 296 294 293 293
222 275 253 255 261 275 275 267 216 244 260 283 293 9 68 65 72 43 134 14 213 235 203 189 180 174 172 175 177 178 178 177 177 178 176 175 176 178 179 179 182 180 188 219 271 288 293 293 293
241 254 259 259 266 271 279 294 245 191 218 263 285 212 124 76 66 46 50 358 224 208 197 193 190 181 177 179 182 184 185 186 185 185 186 186 186 189 190 193 200 214 229 256 280 289 291 291 297
246 243 249 244 253 265 279 290 281 220 190 217 235 244 146 138 155 37 27 47 160 203 190 193 194 193 186 183 187 189 191 191 194 195 195 195 196 199 203 207 214 228 252 270 282 289 295 300 298
216 239 245 257 269 277 285 291 298 174 186 234 255 228 223 166 126 152 16 30 61 192 191 199 199 203 198 191 191 194 195 198 200 201 203 204 206 208 213 220 234 243 257 270 280 289 299 301 301
240 245 251 255 252 259 265 278 291 269 207 206 218 214 230 171 145 144 165 32 354 99 200 194 205 214 211 204 196 200 201 202 205 207 208 210 213 215 220 226 236 249 263 278 279 284 291 295 297
230 237 242 252 256 261 263 281 284 291 218 222 219 234 225 243 243 241 225 303 175 184 154 217 208 209 208 213 205 210 208 208 210 211 212 214 217 223 226 234 241 253 257 282 297 281 292 283 288
255 254 250 250 247 254 263 266 276 283 288 310 222 208 229 248 216 210 213 227 189 236 168 206 206 201 195 211 213 216 224 220 218 217 218 216 221 225 230 237 242 252 248 266 288 285 291 299 299
272 275 270 273 264 258 249 258 281 266 282 286 289 204 213 214 235 210 231 231 220 206 249 194 214 211 194 191 205 217 224 230 228 226 226 226 224 228 230 234 241 250 258 269 276 289 301 304 310
313 300 297 284 282 282 299 282 260 280 286 277 278 277 209 210 215 229 228 235 217 200 208 217 209 200 197 195 205 208 223 219 220 221 227 232 234 235 239 238 233 241 254 268 273 274 280 292 290
311 308 296 286 293 272 267 266 250 270 268 254 268 272 261 209 216 227 222 226 225 215 210 208 200 201 199 205 215 213 210 206 221 223 223 230 235 239 240 236 241 242 242 240 243 252 260 269 276
276 260 269 279 247 254 226 254 252 245 253 245 249 262 262 270 245 227 240 221 222 221 215 215 206 212 224 217 221 223 215 198 194 203 215 229 240 244 246 248 248 248 248 251 250 248 258 266 273
264 267 255 251 266 260 248 245 251 232 229 235 246 256 255 246 282 213 217 209 211 215 218 221 220 218 223 220 210 218 221 218 205 213 212 219 234 244 252 253 254 251 253 250 250 254 259 271 276
246 263 274 280 289 319 297 289 303 217 213 256 270 265 251 216 224 245 215 210 203 207 214 222 230 223 222 224 216 203 226 221 220 214 228 222 227 237 248 254 254 255 248 250 251 260 268 272 276
262 272 287 293 315 313 304 292 280 273 232 257 283 284 222 219 232 222 210 195 194 199 204 218 228 226 224 226 225 221 215 224 225 222 213 219 234 232 248 258 255 260 253 255 255 266 280 277 274
268 257 288 281 282 281 287 288 285 257 214 270 280 270 250 217 211 209 189 190 188 199 207 220 233 235 234 224 225 230 225 221 235 240 233 226 236 244 238 253 262 266 257 253 264 277 291 288 286
287 287 295 288 288 259 273 276 279 288 238 232 244 254 259 233 213 208 198 195 192 195 215 229 236 239 243 238 228 231 232 227 234 253 252 241 233 235 248 266 266 264 266 259 273 282 273 270 274
285 249 260 274 277 347 302 294 279 258 275 269 272 249 245 219 200 212 189 167 173 174 175 192 243 260 263 247 234 227 233 234 227 239 248 249 247 240 238 272 277 265 275 273 269 273 271 262 264
329 339 270 264 212 274 261 256 279 278 265 307 291 256 235 181 160 162 166 166 159 178 206 216 234 249 259 245 237 233 230 246 251 259 261 246 239 248 240 253 264 273 279 270 271 268 267 269 270
352 350 330 280 258 246 254 255 240 251 303 301 296 269 189 157 149 146 166 175 199 224 225 229 241 243 239 249 244 244 243 242 244 246 247 248 240 233 235 240 248 247 251 268 269 265 264 271 273
290 155 184 275 247 285 318 250 252 211 240 294 298 166 144 140 147 158 170 196 213 209 213 215 222 225 237 272 259 251 258 254 246 237 241 245 235 233 228 234 241 238 226 256 261 261 264 267 266
216 167 206 239 261 282 278 288 302 242 262 289 336 143 147 150 159 173 170 158 164 193 208 207 201 190 225 247 262 275 284 272 262 254 251 250 240 240 240 242 240 247 256 259 261 263 260 263 269
213 32 339 117 228 236 238 282 274 23 341 286 291 274 130 133 132 143 149 157 176 194 197 210 228 245 252 245 243 257 271 276 270 261 256 260 261 259 252 250 252 248 251 261 259 263 261 263 265
257 27 351 301 189 251 264 250 109 30 17 304 276 326 176 162 167 159 166 205 225 231 230 226 230 235 231 221 236 258 244 256 263 266 267 274 278 273 269 261 256 255 256 252 256 257 259 260 267
47 152 147 153 335 294 103 253 340 341 3 329 355 298 340 171 170 189 226 215 207 218 212 213 216 214 218 223 249 246 239 250 257 262 267 269 270 273 275 273 270 265 261 256 251 255 257 260 267